TimeCDT,TemperatureF,Dew PointF,Humidity,Sea Level PressureIn,VisibilityMPH,Wind Direction,Wind SpeedMPH,Gust SpeedMPH,PrecipitationIn,Events,Conditions,WindDirDegrees,DateUTC
12:15 AM,64.9,60.6,86,29.72,10.0,North,17.3,21.9,N/A,,Mostly Cloudy,360,2013-03-10 06:15:00
12:35 AM,60.4,55.6,84,29.77,10.0,North,15.0,25.3,N/A,Rain,Light Rain,10,2013-03-10 06:35:00
12:55 AM,59.0,54.7,86,29.76,10.0,North,17.3,26.5,N/A,Rain,Light Rain,360,2013-03-10 06:55:00
1:15 AM,59.0,54.7,86,29.76,10.0,North,11.5,-,N/A,,Overcast,10,2013-03-10 07:15:00
1:35 AM,59.0,54.5,85,29.76,10.0,North,9.2,-,N/A,,Overcast,10,2013-03-10 07:35:00
1:55 AM,59.0,54.3,84,29.78,10.0,NNE,9.2,-,N/A,,Overcast,20,2013-03-10 07:55:00
3:15 AM,59.7,54.3,82,29.78,10.0,North,5.8,-,N/A,,Mostly Cloudy,350,2013-03-10 08:15:00
3:35 AM,59.0,53.6,82,29.78,10.0,North,6.9,-,N/A,,Mostly Cloudy,360,2013-03-10 08:35:00
3:55 AM,59.0,53.6,82,29.79,10.0,NNW,6.9,-,N/A,,Mostly Cloudy,330,2013-03-10 08:55:00
4:15 AM,59.0,54.1,84,29.79,10.0,NNW,4.6,-,N/A,,Mostly Cloudy,330,2013-03-10 09:15:00
4:35 AM,59.0,53.6,82,29.80,10.0,NNW,4.6,-,N/A,,Mostly Cloudy,340,2013-03-10 09:35:00
4:55 AM,60.3,50.7,71,29.80,10.0,NNW,6.9,-,N/A,,Scattered Clouds,340,2013-03-10 09:55:00
5:15 AM,60.1,47.5,63,29.81,10.0,NNW,6.9,-,N/A,,Scattered Clouds,340,2013-03-10 10:15:00
5:35 AM,59.0,45.7,61,29.82,10.0,North,6.9,-,N/A,,Clear,350,2013-03-10 10:35:00
5:55 AM,57.7,46.0,65,29.84,10.0,North,4.6,-,N/A,,Clear,360,2013-03-10 10:55:00
6:15 AM,57.7,46.4,66,29.85,10.0,North,4.6,-,N/A,,Scattered Clouds,350,2013-03-10 11:15:00
7:35 AM,55.4,41.7,60,29.88,10.0,NNW,5.8,-,N/A,,Clear,330,2013-03-10 12:35:00
7:55 AM,55.4,42.1,61,29.89,10.0,NNW,6.9,-,N/A,,Clear,330,2013-03-10 12:55:00
8:15 AM,55.4,42.4,62,29.90,10.0,NNW,8.1,-,N/A,,Clear,340,2013-03-10 13:15:00
8:35 AM,55.4,40.8,58,29.91,10.0,NNW,6.9,-,N/A,,Clear,330,2013-03-10 13:35:00
8:55 AM,55.8,41.7,59,29.92,10.0,NNW,6.9,-,N/A,,Clear,340,2013-03-10 13:55:00
9:15 AM,57.7,38.1,48,29.93,10.0,NNW,18.4,-,N/A,,Clear,340,2013-03-10 14:15:00
9:35 AM,57.7,35.4,43,29.95,10.0,NNW,19.6,27.6,N/A,,Clear,330,2013-03-10 14:35:00
9:55 AM,57.7,36.0,44,29.96,10.0,NNW,20.7,27.6,N/A,,Clear,330,2013-03-10 14:55:00
10:15 AM,57.7,33.4,40,29.97,10.0,NNW,21.9,29.9,N/A,,Clear,340,2013-03-10 15:15:00
10:35 AM,58.8,32.4,37,29.98,10.0,North,20.7,28.8,N/A,,Clear,350,2013-03-10 15:35:00
10:55 AM,59.0,30.7,34,29.98,10.0,North,21.9,29.9,N/A,,Clear,350,2013-03-10 15:55:00
11:15 AM,60.3,31.1,33,29.99,10.0,NNW,19.6,25.3,N/A,,Clear,340,2013-03-10 16:15:00
11:35 AM,60.8,29.5,31,30.00,10.0,NNW,17.3,24.2,N/A,,Clear,340,2013-03-10 16:35:00
11:55 AM,61.9,30.6,31,30.01,10.0,North,13.8,18.4,N/A,,Clear,360,2013-03-10 16:55:00
12:15 PM,64.2,31.1,29,30.02,10.0,North,11.5,21.9,N/A,,Clear,350,2013-03-10 17:15:00
12:35 PM,65.3,29.7,26,30.01,10.0,North,15.0,25.3,N/A,,Clear,350,2013-03-10 17:35:00
12:55 PM,65.3,29.3,26,30.01,10.0,North,11.5,-,N/A,,Clear,360,2013-03-10 17:55:00
1:15 PM,68.0,31.1,25,30.01,10.0,North,10.4,21.9,N/A,,Clear,350,2013-03-10 18:15:00
1:35 PM,66.0,29.8,26,30.00,10.0,NNW,13.8,19.6,N/A,,Clear,340,2013-03-10 18:35:00
1:55 PM,68.0,29.7,24,29.99,10.0,NNE,13.8,17.3,N/A,,Clear,20,2013-03-10 18:55:00
2:15 PM,68.0,29.5,24,29.98,10.0,North,12.7,25.3,N/A,,Clear,350,2013-03-10 19:15:00
2:35 PM,68.0,28.4,23,29.98,10.0,NNW,11.5,18.4,N/A,,Clear,340,2013-03-10 19:35:00
2:55 PM,68.0,27.5,22,29.97,10.0,North,16.1,19.6,N/A,,Clear,360,2013-03-10 19:55:00
3:15 PM,68.2,26.4,21,29.96,10.0,North,13.8,21.9,N/A,,Clear,350,2013-03-10 20:15:00
3:35 PM,68.4,27.3,22,29.96,10.0,North,11.5,18.4,N/A,,Clear,360,2013-03-10 20:35:00
3:55 PM,68.0,25.5,20,29.96,10.0,NNW,10.4,16.1,N/A,,Clear,330,2013-03-10 20:55:00
4:15 PM,68.0,25.5,20,29.96,10.0,North,6.9,-,N/A,,Clear,10,2013-03-10 21:15:00
4:35 PM,68.4,25.7,20,29.95,10.0,NE,10.4,-,N/A,,Clear,40,2013-03-10 21:35:00
4:55 PM,68.4,25.0,20,29.95,10.0,North,8.1,21.9,N/A,,Clear,10,2013-03-10 21:55:00
5:15 PM,68.5,24.6,19,29.95,10.0,NNW,16.1,20.7,N/A,,Clear,340,2013-03-10 22:15:00
5:35 PM,68.5,24.8,19,29.95,10.0,North,11.5,-,N/A,,Clear,360,2013-03-10 22:35:00
5:55 PM,68.2,25.0,20,29.96,10.0,North,15.0,18.4,N/A,,Clear,10,2013-03-10 22:55:00
6:15 PM,68.0,23.9,19,29.96,10.0,North,11.5,21.9,N/A,,Clear,10,2013-03-10 23:15:00
6:35 PM,68.0,23.9,19,29.97,10.0,North,15.0,19.6,N/A,,Clear,350,2013-03-10 23:35:00
6:55 PM,68.0,23.9,19,29.98,10.0,North,13.8,19.6,N/A,,Clear,360,2013-03-10 23:55:00
7:15 PM,66.2,23.0,19,29.99,10.0,North,11.5,18.4,N/A,,Clear,360,2013-03-11 00:15:00
7:35 PM,64.4,23.0,21,30.00,10.0,North,10.4,19.6,N/A,,Clear,10,2013-03-11 00:35:00
7:55 PM,61.7,23.4,23,30.00,10.0,North,11.5,-,N/A,,Clear,10,2013-03-11 00:55:00
8:15 PM,60.6,23.9,25,30.01,10.0,North,9.2,-,N/A,,Clear,10,2013-03-11 01:15:00
8:35 PM,59.7,24.8,26,30.03,10.0,North,8.1,-,N/A,,Clear,360,2013-03-11 01:35:00
8:55 PM,58.3,25.5,28,30.05,10.0,North,8.1,-,N/A,,Clear,360,2013-03-11 01:55:00
9:15 PM,57.7,27.0,31,30.07,10.0,North,4.6,-,N/A,,Clear,360,2013-03-11 02:15:00
9:35 PM,57.7,27.5,31,30.09,10.0,North,3.5,-,N/A,,Clear,360,2013-03-11 02:35:00
9:55 PM,57.6,27.9,32,30.10,10.0,NNW,3.5,-,N/A,,Clear,340,2013-03-11 02:55:00
10:15 PM,55.4,28.0,35,30.12,10.0,Calm,Calm,-,N/A,,Clear,0,2013-03-11 03:15:00
10:55 PM,52.7,27.3,38,30.14,10.0,NNW,8.1,-,N/A,,Clear,340,2013-03-11 03:55:00
11:15 PM,52.7,25.5,35,30.15,10.0,North,6.9,-,N/A,,Clear,350,2013-03-11 04:15:00
11:35 PM,52.7,25.9,35,30.16,10.0,North,6.9,-,N/A,,Clear,350,2013-03-11 04:35:00
11:55 PM,52.7,25.2,34,30.16,10.0,North,6.9,-,N/A,,Clear,360,2013-03-11 04:55:00
12:15 AM,52.7,26.1,36,30.17,10.0,North,6.9,-,N/A,,Clear,350,2013-03-11 05:15:00
12:35 AM,52.7,25.2,34,30.17,10.0,North,6.9,-,N/A,,Clear,360,2013-03-11 05:35:00
12:55 AM,50.2,24.4,37,30.17,10.0,North,5.8,-,N/A,,Clear,360,2013-03-11 05:55:00